{"data":{"norad_id":67180,"epoch":"2026-09-20T03:11:04.432416Z","epoch_age_seconds":110169,"freshness":"FRESH","line1":"1 67180U 25303T   26263.13269019  .00008590  00000+0  32124-3 0  9991","line2":"2 67180  43.0064 292.5207 0001670 271.8135  88.2525 15.27586160 42477","mean_motion":15.2758616,"eccentricity":0.000167,"inclination_deg":43.0064,"raan_deg":292.5207,"arg_perigee_deg":271.8135,"mean_anomaly_deg":88.2525,"bstar":0.00032124,"rev_number":4247,"period_min":94.266368582444,"perigee_km":481.8848358479,"apogee_km":484.17646584328,"semimajor_km":6861.1676508456,"source":"CELESTRAK","updated_at":"2026-09-21T09:00:36.132028Z"}}